Regional Weather Roundup
Issued by NWS Green Bay, WI

Home | Current Version | Previous Version | Text Only | Print | Product List | Glossary On
Versions: 1 2 3 4 5 6 7 8 9 10 11 12 13 14 15 16 17 18 19 20 21 22 23 24 25 26 27 28 29 30 31 32 33 34 35 36 37 38 39 40 41 42 43 44 45 46 47 48 49 50
000
ASUS43 KGRB 190100
RWRGRB

NORTH-CENTRAL AND NORTHEAST WISCONSIN REGIONAL WEATHER ROUNDUP
NATIONAL WEATHER SERVICE GREEN BAY WI
700 PM CST THU JAN 18 2018

WIZ005-009-010>012-018-019-190200-
NORTH CENTRAL WISCONSIN

CITY           SKY/WX    TMP DP  RH WIND       PRES   REMARKS
IRONWOOD       CLOUDY    25  22  88 CALM      29.73S
MANITOWISH WTR NOT AVBL
ARBOR VITAE    NOT AVBL
EAGLE RIVER    FAIR      22  22  99 CALM      29.72S
LAND O LAKES   NOT AVBL
RHINELANDER    FAIR      25  20  81 SW6       29.74R
PHILLIPS       FAIR      29  21  74 SW3       29.74R
ANTIGO         NOT AVBL
TOMAHAWK       NOT AVBL
MERRILL        FAIR      26  20  77 CALM      29.78R
$$

WIZ013-073-190200-
NORTHEAST WISCONSIN

CITY           SKY/WX    TMP DP  RH WIND       PRES   REMARKS
IRON MOUNTAIN  MOCLDY    27  22  81 CALM      29.73S
MARINETTE      FAIR      28  21  75 SW7       29.80R
$$

WIZ017-030-035>037-045-190200-
CENTRAL WISCONSIN

CITY           SKY/WX    TMP DP  RH WIND       PRES   REMARKS
MEDFORD        NOT AVBL
WAUSAU         FAIR      30  20  66 SW8       29.77R
MOSINEE        MOCLDY    27  19  74 SW10      29.79R
MARSHFIELD     FAIR      29  21  72 SW8       29.78R
WISC RAPIDS    FAIR      29  19  66 SW9       29.83R
STEVENS POINT  NOT AVBL
WAUPACA        NOT AVBL
SHAWANO        FAIR      32  21  63 CALM      29.80R
CLINTONVILLE   NOT AVBL
WAUTOMA        FAIR      29  20  69 SW6       29.85R
$$

WIZ038-039-048-051-190200-
FOX VALLEY

CITY           SKY/WX    TMP DP  RH WIND       PRES   REMARKS
NWS GREEN BAY  FAIR      28  20  71 SW9       29.82R
APPLETON       PTCLDY    28  18  64 SW12      29.81R
OSHKOSH        FAIR      28  19  69 SW13      29.84R
FOND DU LAC    FAIR      29  17  61 SW16G23   29.86S
$$

WIZ022-050-052-190200-
EAST CENTRAL WISCONSIN

CITY           SKY/WX    TMP DP  RH WIND       PRES   REMARKS
EPHRAIM        NOT AVBL
WASHINGTON ISL NOT AVBL
STURGEON BAY   FAIR      26  20  77 S9        29.82R
MANITOWOC      FAIR      29  20  69 SW8       29.84
SHEBOYGAN      FAIR      28  19  69 SW18      29.85S
$$

LMZ563-521-522-541>543-190200-
LAKESHORE

STATION/POSITION TIME  TEMP    WIND        PRES    VSBY  WAVE
                       AIR SEA DIR/SP/G                  HT/PER
                 (UTC) (F)     (DEG/KT/KT) (MB)    (MI)  (FT/S)
SHEBOYGAN LKSHOR 0000   30     230/ 17/ 18 1011.7R
KEWAUNEE LKSHORE 0030   29     220/  2/  5 1009.5R
NORTHPORT PIER   0040   31     210/  9/ 28 1009.1R
MENOMINEE LKSHOR 0024   28     180/  9/ 11 1008.5
$$




USA.gov is the U.S. government's official web portal to all federal, state and local government web resources and services.